• Em Portugal
  • Lista de países
  • Para 7 dias
  • Temperatura da água
  • Mapas de satélite
  • Mapa do tempo
  • Widgets de tempo
  • user-avatar
    Iniciar Sessão

    Previsão horária em Kavarna

    Hoje, 25 Setembro, Terça-feira

    Tempo Temperatura Precipitação Vento Pressão Humidade
    00:00 +14°C° 0.4 mm 11 m/s 762 mmHg 71%
    01:00 +13°C° 0.4 mm 11 m/s 763 mmHg 73%
    02:00 +12°C° 0.4 mm 10 m/s 764 mmHg 75%
    03:00 +12°C° 0.6 mm 9 m/s 764 mmHg 73%
    04:00 +12°C° 0.6 mm 9 m/s 765 mmHg 70%
    05:00 +12°C° 0.6 mm 8 m/s 765 mmHg 68%
    06:00 +12°C° 0.2 mm 7 m/s 766 mmHg 67%
    07:00 +12°C° 0.2 mm 7 m/s 766 mmHg 66%
    08:00 +13°C° 0.2 mm 6 m/s 767 mmHg 65%
    09:00 +14°C° 0 mm 6 m/s 767 mmHg 60%
    10:00 +15°C° 0 mm 6 m/s 767 mmHg 55%
    11:00 +16°C° 0 mm 6 m/s 768 mmHg 50%
    12:00 +16°C° 0 mm 6 m/s 768 mmHg 46%
    13:00 +16°C° 0 mm 6 m/s 768 mmHg 42%
    14:00 +16°C° 0 mm 7 m/s 768 mmHg 38%
    15:00 +16°C° 0 mm 6 m/s 768 mmHg 37%
    16:00 +16°C° 0 mm 6 m/s 768 mmHg 37%
    17:00 +16°C° 0 mm 6 m/s 768 mmHg 36%
    18:00 +15°C° 0 mm 6 m/s 769 mmHg 38%
    19:00 +14°C° 0 mm 6 m/s 769 mmHg 40%
    20:00 +14°C° 0 mm 5 m/s 770 mmHg 41%
    21:00 +13°C° 0 mm 6 m/s 770 mmHg 42%
    22:00 +12°C° 0 mm 7 m/s 771 mmHg 43%
    23:00 +12°C° 0 mm 8 m/s 771 mmHg 44%

    Amanhã, 26 Setembro, Quarta-feira

    Tempo Temperatura Precipitação Vento Pressão Humidade
    00:00 +11°C° 0 mm 8 m/s 771 mmHg 45%
    01:00 +10°C° 0 mm 8 m/s 771 mmHg 47%
    02:00 +10°C° 0 mm 8 m/s 772 mmHg 49%
    03:00 +8°C° 0 mm 9 m/s 772 mmHg 52%
    04:00 +8°C° 0 mm 9 m/s 772 mmHg 56%
    05:00 +8°C° 0 mm 9 m/s 772 mmHg 59%
    06:00 +8°C° 0 mm 9 m/s 772 mmHg 58%
    07:00 +9°C° 0 mm 10 m/s 773 mmHg 56%
    08:00 +9°C° 0 mm 10 m/s 773 mmHg 55%
    09:00 +11°C° 0 mm 10 m/s 773 mmHg 50%
    10:00 +13°C° 0 mm 10 m/s 773 mmHg 45%
    11:00 +14°C° 0 mm 10 m/s 773 mmHg 41%
    12:00 +14°C° 0 mm 10 m/s 773 mmHg 39%
    13:00 +16°C° 0 mm 10 m/s 773 mmHg 37%
    14:00 +16°C° 0 mm 10 m/s 772 mmHg 36%
    15:00 +16°C° 0 mm 10 m/s 772 mmHg 36%
    16:00 +15°C° 0 mm 9 m/s 772 mmHg 36%
    17:00 +15°C° 0 mm 9 m/s 772 mmHg 36%
    18:00 +13°C° 0 mm 9 m/s 772 mmHg 38%
    19:00 +12°C° 0 mm 9 m/s 772 mmHg 40%
    20:00 +12°C° 0 mm 9 m/s 773 mmHg 42%
    21:00 +11°C° 0 mm 9 m/s 773 mmHg 42%
    22:00 +11°C° 0 mm 9 m/s 773 mmHg 43%
    23:00 +10°C° 0 mm 9 m/s 773 mmHg 43%

    Depois de amanhã, 27 Setembro, Quinta-feira

    Tempo Temperatura Precipitação Vento Pressão Humidade
    00:00 +10°C° 0 mm 9 m/s 773 mmHg 45%
    01:00 +9°C° 0 mm 8 m/s 773 mmHg 46%
    02:00 +9°C° 0 mm 8 m/s 772 mmHg 47%
    03:00 +9°C° 0 mm 8 m/s 772 mmHg 49%
    04:00 +7°C° 0 mm 8 m/s 772 mmHg 50%
    05:00 +7°C° 0 mm 8 m/s 772 mmHg 51%
    06:00 +9°C° 0.1 mm 8 m/s 772 mmHg 50%
    07:00 +9°C° 0.1 mm 8 m/s 772 mmHg 49%
    08:00 +10°C° 0.1 mm 8 m/s 772 mmHg 48%
    09:00 +12°C° 0.1 mm 8 m/s 772 mmHg 47%
    10:00 +13°C° 0.1 mm 8 m/s 772 mmHg 45%
    11:00 +16°C° 0.1 mm 8 m/s 771 mmHg 44%
    12:00 +16°C° 0.1 mm 8 m/s 771 mmHg 43%
    13:00 +17°C° 0.1 mm 7 m/s 771 mmHg 43%
    14:00 +18°C° 0.1 mm 7 m/s 770 mmHg 42%
    15:00 +17°C° 0 mm 7 m/s 770 mmHg 43%
    16:00 +17°C° 0 mm 7 m/s 769 mmHg 44%
    17:00 +16°C° 0 mm 7 m/s 769 mmHg 45%
    18:00 +15°C° 0 mm 7 m/s 769 mmHg 49%
    19:00 +14°C° 0 mm 6 m/s 769 mmHg 53%
    20:00 +13°C° 0 mm 6 m/s 769 mmHg 57%
    21:00 +13°C° 0 mm 6 m/s 769 mmHg 58%
    22:00 +13°C° 0 mm 6 m/s 769 mmHg 59%
    23:00 +13°C° 0 mm 6 m/s 769 mmHg 60%

    28 Setembro, Sexta-feira

    Tempo Temperatura Precipitação Vento Pressão Humidade
    00:00 +13°C° 0 mm 6 m/s 768 mmHg 59%
    01:00 +13°C° 0 mm 6 m/s 768 mmHg 58%
    02:00 +11°C° 0 mm 6 m/s 768 mmHg 57%
    03:00 +11°C° 0 mm 6 m/s 767 mmHg 56%
    04:00 +11°C° 0 mm 6 m/s 767 mmHg 55%
    05:00 +11°C° 0 mm 6 m/s 766 mmHg 54%
    06:00 +13°C° 0 mm 6 m/s 766 mmHg 50%
    07:00 +14°C° 0 mm 6 m/s 766 mmHg 47%
    08:00 +15°C° 0 mm 5 m/s 766 mmHg 43%
    09:00 +17°C° 0 mm 5 m/s 766 mmHg 43%
    10:00 +19°C° 0 mm 5 m/s 766 mmHg 43%
    11:00 +21°C° 0 mm 5 m/s 766 mmHg 42%
    12:00 +21°C° 0 mm 5 m/s 765 mmHg 42%
    13:00 +21°C° 0 mm 5 m/s 765 mmHg 41%
    14:00 +22°C° 0 mm 5 m/s 764 mmHg 41%
    15:00 +21°C° 0 mm 5 m/s 764 mmHg 44%
    16:00 +21°C° 0 mm 4 m/s 764 mmHg 47%
    17:00 +20°C° 0 mm 4 m/s 763 mmHg 50%
    18:00 +19°C° 0 mm 4 m/s 763 mmHg 54%
    19:00 +18°C° 0 mm 3 m/s 763 mmHg 58%
    20:00 +17°C° 0 mm 3 m/s 763 mmHg 62%
    21:00 +17°C° 0 mm 3 m/s 763 mmHg 64%
    22:00 +17°C° 0 mm 3 m/s 762 mmHg 65%
    23:00 +16°C° 0 mm 3 m/s 762 mmHg 66%

    29 Setembro, Sábado

    Tempo Temperatura Precipitação Vento Pressão Humidade
    00:00 +16°C° 0 mm 3 m/s 762 mmHg 67%
    01:00 +16°C° 0 mm 2 m/s 762 mmHg 68%
    02:00 +16°C° 0 mm 2 m/s 762 mmHg 69%
    03:00 +16°C° 0 mm 2 m/s 761 mmHg 69%
    04:00 +16°C° 0 mm 2 m/s 761 mmHg 70%
    05:00 +15°C° 0 mm 2 m/s 761 mmHg 71%
    06:00 +16°C° 0 mm 2 m/s 761 mmHg 68%
    07:00 +17°C° 0 mm 2 m/s 761 mmHg 66%
    08:00 +18°C° 0 mm 3 m/s 761 mmHg 63%
    09:00 +19°C° 0 mm 3 m/s 761 mmHg 59%
    10:00 +20°C° 0 mm 2 m/s 761 mmHg 54%
    11:00 +21°C° 0 mm 2 m/s 761 mmHg 49%
    12:00 +23°C° 0 mm 2 m/s 761 mmHg 48%
    13:00 +23°C° 0 mm 2 m/s 761 mmHg 47%
    14:00 +22°C° 0 mm 3 m/s 761 mmHg 46%
    15:00 +22°C° 0 mm 3 m/s 761 mmHg 48%
    16:00 +22°C° 0 mm 3 m/s 761 mmHg 49%
    17:00 +22°C° 0 mm 3 m/s 761 mmHg 50%
    18:00 +21°C° 0 mm 3 m/s 761 mmHg 55%
    19:00 +20°C° 0 mm 3 m/s 761 mmHg 60%
    20:00 +18°C° 0 mm 3 m/s 762 mmHg 66%
    21:00 +18°C° 0 mm 2 m/s 762 mmHg 67%
    22:00 +18°C° 0 mm 2 m/s 762 mmHg 69%
    23:00 +18°C° 0 mm 2 m/s 762 mmHg 70%

    30 Setembro, Domingo

    Tempo Temperatura Precipitação Vento Pressão Humidade
    00:00 +17°C° 0 mm 3 m/s 763 mmHg 72%
    01:00 +17°C° 0 mm 4 m/s 763 mmHg 73%
    02:00 +15°C° 0 mm 6 m/s 763 mmHg 75%
    03:00 +15°C° 0 mm 6 m/s 763 mmHg 79%
    04:00 +14°C° 0 mm 6 m/s 763 mmHg 84%
    05:00 +14°C° 0 mm 7 m/s 763 mmHg 88%
    06:00 +15°C° 0.1 mm 7 m/s 764 mmHg 85%
    07:00 +15°C° 0.1 mm 8 m/s 764 mmHg 83%
    08:00 +16°C° 0.1 mm 8 m/s 764 mmHg 81%
    09:00 +17°C° 0.3 mm 8 m/s 764 mmHg 75%
    10:00 +18°C° 0.3 mm 8 m/s 764 mmHg 69%
    11:00 +20°C° 0.3 mm 8 m/s 764 mmHg 64%
    12:00 +21°C° 0.2 mm 8 m/s 764 mmHg 60%
    13:00 +22°C° 0.2 mm 8 m/s 764 mmHg 57%
    14:00 +22°C° 0.2 mm 8 m/s 764 mmHg 54%
    15:00 +22°C° 0 mm 8 m/s 764 mmHg 55%
    16:00 +21°C° 0 mm 8 m/s 764 mmHg 56%
    17:00 +20°C° 0 mm 7 m/s 764 mmHg 58%
    18:00 +18°C° 0 mm 7 m/s 764 mmHg 62%
    19:00 +17°C° 0 mm 6 m/s 765 mmHg 67%
    20:00 +16°C° 0 mm 6 m/s 765 mmHg 71%
    21:00 +16°C° 0 mm 6 m/s 765 mmHg 72%
    22:00 +16°C° 0 mm 5 m/s 765 mmHg 72%
    23:00 +16°C° 0 mm 5 m/s 764 mmHg 72%
    Mostrar mais